Overview Statistics Trail Chart Weather Telemetry Raw packets
 

This is the latest recevied weather packets stored in our database for station/object K5OLV. If no packets are shown the sender has not sent any weather packets the latest 10 day(s).

<< 9 10 11 12 13 14 15 >>
Time Temp. Humidity Pressure Rain* Wind** Luminosity Snow
1788549825 35° C 50% 1015 hPa 0 mm - 627 W/m² -
1788549543 34.44° C 55% 1014.9 hPa 0 mm - 639 W/m² -
1788549218 32.78° C 55% 1015.2 hPa 0 mm - 661 W/m² -
1788548914 32.78° C 61% 1015.4 hPa 0 mm - 572 W/m² -
1788548610 34.44° C 56% 1015.4 hPa 0 mm - 221 W/m² -
1788548306 33.33° C 59% 1015.2 hPa 0 mm - 696 W/m² -
1788548001 32.78° C 60% 1015.2 hPa 0 mm - 161 W/m² -
1788547701 33.89° C 59% 1015.4 hPa 0 mm - 356 W/m² -
1788547395 35° C 55% 1015.5 hPa 0 mm - 219 W/m² -
1788547091 33.33° C 58% 1015.8 hPa 0 mm - 603 W/m² -
1788546786 33.33° C 59% 1015.9 hPa 0 mm - 605 W/m² -
1788546481 33.33° C 58% 1015.6 hPa 0 mm - 130 W/m² -
1788546176 34.44° C 55% 1015.8 hPa 0 mm - 685 W/m² -
1788545872 33.33° C 57% 1015.9 hPa 0 mm - 723 W/m² -
1788545572 32.78° C 61% 1015.9 hPa 0 mm - 746 W/m² -
1788545267 32.78° C 61% 1015.9 hPa 0 mm - 800 W/m² -
1788544963 34.44° C 57% 1016 hPa 0 mm - 724 W/m² -
1788544661 33.89° C 56% 1016.1 hPa 0 mm - 742 W/m² -
1788544360 33.89° C 57% 1015.8 hPa 0 mm - 766 W/m² -
1788544055 33.89° C 56% 1016.1 hPa 0 mm - 762 W/m² -
1788543751 33.89° C 56% 1016.2 hPa 0 mm - 769 W/m² -
1788543447 33.33° C 56% 1016.2 hPa 0 mm - 750 W/m² -
1788543147 33.89° C 61% 1016.4 hPa 0 mm - 728 W/m² -
1788542843 32.78° C 60% 1016.4 hPa 0 mm - 716 W/m² -
1788542542 33.33° C 60% 1016.2 hPa 0 mm - 702 W/m² -

* Rain latest hour (hover to see other rain measurements)
** Current wind speed in m/s (hover to see current wind gust speed)